CDT,Max TemperatureF,Mean TemperatureF,Min TemperatureF,Max Dew PointF,MeanDew PointF,Min DewpointF,Max Humidity, Mean Humidity, Min Humidity, Max Sea Level PressureIn, Mean Sea Level PressureIn, Min Sea Level PressureIn, Max VisibilityMiles, Mean VisibilityMiles, Min VisibilityMiles, Max Wind SpeedMPH, Mean Wind SpeedMPH, Max Gust SpeedMPH,PrecipitationIn, CloudCover, Events, WindDirDegrees
2011-10-1,79,64,49,47,42,39,66,48,29,29.99,29.95,29.91,,,,18,10,27,0.00,,,176
2011-10-2,88,68,47,51,47,43,80,52,24,29.94,29.89,29.83,,,,15,7,17,0.00,,,130
2011-10-3,73,60,47,51,49,44,93,70,47,30.03,29.98,29.89,,,,15,5,21,0.00,,,37
2011-10-4,83,66,49,53,50,47,93,65,36,30.00,29.84,29.67,,,,17,8,22,0.00,,,95
2011-10-5,85,73,60,49,44,40,60,43,26,29.65,29.60,29.55,,,,23,15,43,0.00,,,154
2011-10-6,71,66,60,59,49,43,60,49,37,29.58,29.55,29.42,,,,24,19,39,0.00,,,146
2011-10-7,61,57,52,59,48,36,100,70,39,29.64,29.39,29.27,,,,28,19,38,0.01,,,202
2011-10-8,58,54,49,48,42,37,93,72,51,30.27,30.03,29.67,,,,23,14,29,0.00,,,303
2011-10-9,54,44,34,47,40,34,93,76,59,30.31,30.20,29.98,,,,15,6,,0.03,,,57
2011-10-10,56,52,47,49,47,42,100,86,72,29.94,29.78,29.70,,,,14,6,16,0.11,,,243
2011-10-11,66,52,41,51,45,39,100,76,50,29.70,29.66,29.62,,,,8,2,,0.00,,,161
2011-10-12,64,54,44,45,43,41,86,67,48,29.86,29.75,29.64,,,,24,13,32,0.00,,,296
2011-10-13,57,47,37,44,41,38,100,80,59,29.88,29.83,29.79,,,,32,13,43,0.06,,,308
2011-10-14,50,45,40,39,36,32,86,71,56,30.01,29.96,29.87,,,,28,17,35,0.00,,,303
2011-10-15,49,40,31,38,34,30,96,78,60,29.99,29.95,29.91,,,,13,6,15,0.00,,,303
2011-10-16,51,42,33,37,30,26,92,67,42,30.10,30.04,29.95,,,,28,14,35,0.00,,,297
2011-10-17,54,44,34,29,27,22,82,55,28,30.18,30.08,30.01,,,,31,16,39,0.00,,,309
2011-10-18,53,40,27,33,29,25,92,67,41,30.28,30.25,30.19,,,,22,10,25,0.00,,,329
2011-10-19,47,34,21,29,22,17,88,60,31,30.30,30.24,30.12,,,,10,6,,0.00,,,118
2011-10-20,57,44,30,36,29,24,85,58,30,30.11,29.98,29.87,,,,20,11,23,0.00,,,186
2011-10-21,60,47,34,39,34,28,89,60,31,30.14,30.04,29.89,,,,16,10,21,0.00,,,323
2011-10-22,65,47,28,43,35,26,96,65,34,30.12,29.96,29.85,,,,23,8,29,0.00,,,245
2011-10-23,58,49,40,44,40,34,100,74,47,29.96,29.89,29.84,,,,15,6,18,0.07,,,300
2011-10-24,47,40,32,40,37,31,96,84,71,30.07,30.03,29.98,,,,12,5,15,0.00,,,317
2011-10-25,45,42,38,41,38,34,100,88,76,30.24,30.09,30.03,,,,18,8,24,0.19,,,321
2011-10-26,47,39,31,34,30,24,100,75,49,30.25,30.19,30.11,,,,17,11,24,0.00,,,294
2011-10-27,50,39,28,32,28,22,92,69,46,30.09,30.02,29.94,,,,16,8,24,0.00,,,261
2011-10-28,50,40,29,27,23,19,78,55,31,30.18,30.12,30.02,,,,23,11,28,0.00,,,295
2011-10-29,52,42,32,37,29,22,76,61,45,29.96,29.82,29.70,,,,24,14,37,0.00,,,208
2011-10-30,50,41,31,30,26,24,85,62,39,30.02,29.98,29.89,,,,26,16,33,0.00,,,299
2011-10-31,64,49,34,39,33,25,82,61,39,29.92,29.78,29.66,,,,20,10,25,0.00,,,239